Temp
5 4 4 2 1 1 1 1 2 2 2 2 3 4 4 4 4 4 4 5 4 5
4 3 2 2 2 1 1 1 1 1 2 3 3 3 3 3 4 3 3 3 4 4
3 2 2 2 2 1 0 0 1 2 3 3 4 3 3 3 3 3 2 3 3 4
2 2 2 2 1 1 1 1 1 2 3 3 3 3 3 2 1 2 2 2 2 3
2 2 1 1 1 -0 -0 -0 -0 1 2 1 1 1 1 1 -1 -0 0 0 0 1
1 1 -0 -0 0 -0 -1 -1 -1 -1 1 1 1 1 0 -0 -0 0 1 1 1 1
1 0 0 0 0 -0 -1 -1 -1 -1 -1 -1 -0 -1 -1 -1 -0 0 0 0 1 1
0 -0 0 0 0 -0 -1 -2 -2 -2 -3 -2 -3 -2 -3 -2 -0 1 1 0 0 -0
1 -0 1 1 1 1 -2 -3 -3 -3 -3 -3 -3 -4 -4 -4 -2 -1 -1 -1 0 0
0 0 -0 1 -0 -2 -2 -4 -4 -3 -4 -3 -4 -4 -4 -4 -3 -2 -2 -1 -1 0
-0 -1 -1 -0 -1 -2 -4 -4 -4 -4 -4 -4 -5 -4 -4 -4 -4 -4 -4 -4 -2 -1
-1 -1 -1 -2 -2 -4 -4 -4 -5 -4 -4 -5 -5 -5 -5 -4 -4 -4 -4 -4 -5 -4
-0 -1 -1 -2 -3 -5 -5 -5 -5 -5 -5 -5 -5 -5 -5 -5 -5 -5 -3 -1 -2 -2
-0 -1 -1 -2 -3 -4 -5 -5 -5 -5 -4 -4 -5 -5 -5 -5 -5 -5 -5 -4 -2 -2
Height
1490 1485 1479 1474 1469 1462 1457 1455 1454 1453 1452 1449 1447 1444 1441 1438 1434 1430 1427 1426 1426 1424
1485 1480 1476 1472 1467 1462 1457 1453 1452 1450 1448 1447 1441 1438 1435 1432 1428 1424 1420 1417 1420 1417
1479 1474 1471 1468 1465 1461 1456 1453 1450 1447 1445 1441 1437 1433 1430 1427 1422 1418 1415 1412 1410 1411
1471 1469 1467 1466 1463 1459 1454 1451 1447 1444 1441 1437 1434 1430 1426 1422 1418 1414 1410 1408 1404 1402
1465 1463 1461 1460 1458 1456 1452 1447 1444 1441 1437 1434 1430 1426 1422 1418 1414 1410 1406 1403 1398 1396
1461 1458 1456 1454 1453 1452 1449 1444 1442 1437 1433 1429 1425 1422 1418 1415 1411 1407 1402 1397 1393 1391
1456 1453 1451 1450 1449 1447 1444 1440 1437 1432 1429 1425 1420 1417 1414 1411 1407 1403 1399 1395 1391 1387
1452 1449 1447 1445 1442 1440 1439 1436 1432 1428 1425 1421 1416 1414 1410 1407 1403 1399 1395 1393 1389 1386
1447 1444 1441 1438 1436 1434 1433 1431 1428 1425 1422 1418 1414 1410 1407 1404 1399 1397 1393 1390 1387 1384
1442 1440 1437 1432 1431 1431 1428 1426 1423 1421 1418 1414 1410 1406 1404 1401 1397 1394 1391 1388 1385 1381
1439 1436 1433 1429 1428 1427 1425 1422 1418 1416 1415 1411 1407 1403 1400 1398 1394 1392 1389 1386 1382 1380
1434 1433 1430 1426 1424 1423 1420 1417 1415 1412 1411 1407 1403 1399 1397 1394 1391 1388 1385 1383 1381 1377
1428 1427 1424 1422 1420 1418 1416 1413 1411 1408 1407 1402 1398 1395 1393 1390 1387 1384 1381 1378 1375 1373
1421 1419 1418 1417 1416 1414 1412 1410 1407 1403 1401 1397 1394 1390 1388 1385 1382 1378 1375 1371 1369 1367
Wind_Speed
32 38 34 26 23 23 20 16 14 15 20 22 20 23 26 28 32 29 32 29 26 31
34 26 17 16 17 18 17 17 17 19 21 22 22 24 25 26 26 30 29 29 35 30
23 15 12 15 16 18 19 19 17 17 18 18 20 21 22 23 25 28 23 21 23 23
20 15 12 14 14 16 15 16 16 16 18 20 21 21 21 20 19 20 22 16 18 19
18 18 18 14 13 16 15 16 18 20 21 22 21 21 20 20 19 20 22 23 23 20
19 18 14 12 14 15 16 19 22 25 26 24 21 21 19 19 21 23 23 22 23 22
19 16 15 13 15 18 20 24 29 24 21 19 19 17 19 20 20 18 17 19 19 17
17 14 16 16 17 20 22 26 19 18 17 17 17 15 18 20 21 21 19 17 16 13
15 17 17 17 17 19 17 18 17 16 17 17 17 16 17 18 20 19 18 18 16 14
16 19 20 18 16 16 15 16 16 16 16 16 17 16 15 16 16 17 17 17 18 16
17 21 20 18 17 15 15 16 18 16 16 16 18 15 14 14 14 15 16 18 17 15
18 21 19 17 18 14 15 16 16 16 18 17 18 15 13 14 15 16 17 17 17 18
18 21 19 17 18 13 14 15 14 15 14 18 16 15 15 15 17 18 19 18 20 19
20 20 19 17 19 20 17 15 14 14 14 15 15 15 16 16 16 18 21 23 22 20
Wind_Direction
316 317 320 332 343 345 339 340 340 325 319 314 308 301 302 302 293 292 286 285 297 291
316 319 331 332 342 350 357 349 344 324 319 313 309 308 305 293 299 303 294 284 280 287
317 312 320 324 335 342 345 337 327 324 321 325 322 319 313 306 294 299 304 294 271 280
310 302 298 309 318 324 337 335 329 323 324 325 325 322 316 315 313 307 305 320 302 279
308 301 281 282 298 314 322 327 321 320 320 321 321 318 318 318 319 318 316 310 306 298
308 305 298 276 277 297 311 314 314 313 313 313 314 310 311 311 310 314 319 317 312 302
303 297 289 280 277 285 301 305 303 309 316 319 318 310 309 311 314 317 322 325 320 312
308 307 298 285 292 294 294 296 311 317 320 323 322 320 316 312 315 321 326 328 327 317
314 316 308 294 296 300 303 305 311 318 323 325 329 331 322 318 316 322 325 326 328 328
315 320 316 309 304 305 310 315 316 323 321 325 333 332 326 323 325 327 329 327 325 326
316 321 316 316 307 303 311 318 321 323 327 328 335 340 333 329 331 330 329 329 329 330
304 314 311 314 318 305 307 314 323 324 323 323 332 340 334 328 328 326 326 326 324 326
290 305 304 309 313 303 307 310 317 314 312 315 329 338 334 332 323 325 325 326 331 332
282 295 299 302 307 304 306 304 310 314 322 333 338 337 340 335 327 327 324 328 333 334